When you browse on this site, cookies collect data to enhance your experience and personalize the content and advertising you see.
Visit our Privacy Policy to learn more. By continuing to use the site, you agree to this use of cookies and data.

Hourly Weather Panguipulli

Today, 14 August, Friday

Time Temperature Precipitation Wind Pressure Humidity
00:00 +5°C° 0.3 mm 2 mps 741 mmHg 98%
01:00 +5°C° 0 mm 1 mps 741 mmHg 97%
02:00 +4°C° 0 mm 1 mps 742 mmHg 97%
03:00 +3°C° 0 mm 1 mps 743 mmHg 98%
04:00 +1°C° 0 mm 0 mps 743 mmHg 98%
05:00 +1°C° 0 mm 0 mps 744 mmHg 98%
06:00 +1°C° 0 mm 0 mps 745 mmHg 98%
07:00 +1°C° 0 mm 0 mps 746 mmHg 98%
08:00 +2°C° 0.2 mm 0 mps 746 mmHg 96%
09:00 +5°C° 0.2 mm 1 mps 746 mmHg 94%
10:00 +6°C° 0.2 mm 1 mps 746 mmHg 93%
11:00 +6°C° 0.4 mm 1 mps 746 mmHg 91%
12:00 +6°C° 0.4 mm 2 mps 746 mmHg 90%
13:00 +6°C° 0.4 mm 2 mps 746 mmHg 89%
14:00 +6°C° 0.3 mm 2 mps 746 mmHg 90%
15:00 +6°C° 0.3 mm 2 mps 745 mmHg 91%
16:00 +5°C° 0.3 mm 2 mps 745 mmHg 91%
17:00 +5°C° 0.5 mm 2 mps 745 mmHg 94%
18:00 +5°C° 0.5 mm 2 mps 745 mmHg 96%
19:00 +4°C° 0.5 mm 2 mps 745 mmHg 98%
20:00 +4°C° 2.7 mm 2 mps 745 mmHg 98%
21:00 +4°C° 2.7 mm 2 mps 745 mmHg 99%
22:00 +4°C° 2.7 mm 2 mps 745 mmHg 99%
23:00 +3°C° 0.7 mm 2 mps 745 mmHg 99%

Tomorrow, 15 August, Saturday

Time Temperature Precipitation Wind Pressure Humidity
00:00 +4°C° 0.7 mm 1 mps 746 mmHg 99%
01:00 +3°C° 0.7 mm 1 mps 746 mmHg 99%
02:00 +3°C° 0.3 mm 1 mps 746 mmHg 99%
03:00 +3°C° 0.3 mm 1 mps 747 mmHg 99%
04:00 +3°C° 0.3 mm 1 mps 747 mmHg 98%
05:00 +3°C° 0.1 mm 1 mps 747 mmHg 99%
06:00 +2°C° 0.1 mm 1 mps 748 mmHg 99%
07:00 +1°C° 0.1 mm 0 mps 748 mmHg 99%
08:00 +3°C° 0.1 mm 1 mps 748 mmHg 97%
09:00 +4°C° 0.1 mm 1 mps 749 mmHg 95%
10:00 +5°C° 0.1 mm 1 mps 749 mmHg 93%
11:00 +5°C° 0.2 mm 1 mps 749 mmHg 91%
12:00 +6°C° 0.2 mm 1 mps 749 mmHg 89%
13:00 +6°C° 0.2 mm 1 mps 749 mmHg 86%
14:00 +7°C° 0.2 mm 1 mps 748 mmHg 87%
15:00 +7°C° 0.2 mm 1 mps 748 mmHg 89%
16:00 +7°C° 0.2 mm 1 mps 748 mmHg 90%
17:00 +6°C° 0.1 mm 1 mps 749 mmHg 92%
18:00 +5°C° 0.1 mm 1 mps 749 mmHg 95%
19:00 +4°C° 0.1 mm 1 mps 749 mmHg 98%
20:00 +4°C° 0.1 mm 1 mps 749 mmHg 98%
21:00 +3°C° 0.1 mm 1 mps 749 mmHg 98%
22:00 +3°C° 0.1 mm 1 mps 749 mmHg 98%
23:00 +3°C° 0.3 mm 1 mps 748 mmHg 98%

Day after tomorrow, 16 August, Sunday

Time Temperature Precipitation Wind Pressure Humidity
00:00 +4°C° 0.3 mm 1 mps 748 mmHg 98%
01:00 +4°C° 0.3 mm 1 mps 748 mmHg 98%
02:00 +4°C° 0.4 mm 1 mps 748 mmHg 98%
03:00 +4°C° 0.4 mm 1 mps 747 mmHg 98%
04:00 +4°C° 0.4 mm 1 mps 747 mmHg 98%
05:00 +4°C° 0.4 mm 1 mps 747 mmHg 98%
06:00 +4°C° 0.4 mm 1 mps 747 mmHg 98%
07:00 +4°C° 0.4 mm 1 mps 746 mmHg 99%
08:00 +5°C° 0.4 mm 1 mps 746 mmHg 98%
09:00 +5°C° 0.4 mm 1 mps 746 mmHg 98%
10:00 +5°C° 0.4 mm 1 mps 746 mmHg 98%
11:00 +6°C° 0.1 mm 1 mps 746 mmHg 97%
12:00 +6°C° 0.1 mm 1 mps 746 mmHg 96%
13:00 +7°C° 0.1 mm 1 mps 746 mmHg 95%
14:00 +7°C° 0 mm 1 mps 746 mmHg 95%
15:00 +7°C° 0 mm 1 mps 746 mmHg 96%
16:00 +7°C° 0 mm 1 mps 746 mmHg 96%
17:00 +6°C° 0 mm 0 mps 746 mmHg 97%
18:00 +5°C° 0 mm 0 mps 746 mmHg 98%
19:00 +5°C° 0 mm 0 mps 746 mmHg 98%
20:00 +4°C° 0 mm 0 mps 746 mmHg 99%
21:00 +4°C° 0 mm 0 mps 746 mmHg 99%
22:00 +4°C° 0 mm 0 mps 746 mmHg 99%
23:00 +4°C° 0 mm 0 mps 746 mmHg 99%

17 August, Monday

Time Temperature Precipitation Wind Pressure Humidity
00:00 +3°C° 0 mm 0 mps 746 mmHg 99%
01:00 +3°C° 0 mm 0 mps 746 mmHg 99%
02:00 +3°C° 0 mm 0 mps 745 mmHg 99%
03:00 +3°C° 0 mm 0 mps 745 mmHg 99%
04:00 +4°C° 0 mm 0 mps 744 mmHg 99%
05:00 +4°C° 0 mm 0 mps 744 mmHg 99%
06:00 +4°C° 0 mm 0 mps 744 mmHg 98%
07:00 +4°C° 0 mm 0 mps 744 mmHg 98%
08:00 +5°C° 0.1 mm 1 mps 744 mmHg 98%
09:00 +6°C° 0.1 mm 1 mps 743 mmHg 97%
10:00 +6°C° 0.1 mm 1 mps 743 mmHg 97%
11:00 +6°C° 0.3 mm 1 mps 743 mmHg 97%
12:00 +6°C° 0.3 mm 1 mps 742 mmHg 98%
13:00 +6°C° 0.3 mm 1 mps 742 mmHg 98%
14:00 +7°C° 0.7 mm 1 mps 741 mmHg 98%
15:00 +6°C° 0.7 mm 2 mps 741 mmHg 98%
16:00 +6°C° 0.7 mm 2 mps 740 mmHg 98%
17:00 +5°C° 0.4 mm 2 mps 740 mmHg 99%
18:00 +5°C° 0.4 mm 2 mps 740 mmHg 99%
19:00 +5°C° 0.4 mm 2 mps 740 mmHg 99%
20:00 +5°C° 0.6 mm 2 mps 740 mmHg 99%
21:00 +5°C° 0.6 mm 2 mps 741 mmHg 98%
22:00 +4°C° 0.6 mm 2 mps 741 mmHg 98%
23:00 +4°C° 0.5 mm 2 mps 741 mmHg 98%

18 August, Tuesday

Time Temperature Precipitation Wind Pressure Humidity
00:00 +4°C° 0.5 mm 1 mps 741 mmHg 99%
01:00 +3°C° 0.5 mm 1 mps 742 mmHg 99%
02:00 +3°C° 0.3 mm 1 mps 742 mmHg 99%
03:00 +2°C° 0.3 mm 1 mps 742 mmHg 99%
04:00 +2°C° 0.3 mm 1 mps 743 mmHg 99%
05:00 +2°C° 0.2 mm 1 mps 743 mmHg 99%
06:00 +1°C° 0.2 mm 1 mps 743 mmHg 99%
07:00 +1°C° 0.2 mm 1 mps 744 mmHg 99%
08:00 +2°C° 0.4 mm 1 mps 744 mmHg 96%
09:00 +2°C° 0.4 mm 2 mps 745 mmHg 94%
10:00 +3°C° 0.4 mm 2 mps 745 mmHg 91%
11:00 +4°C° 0.4 mm 2 mps 745 mmHg 90%
12:00 +4°C° 0.4 mm 2 mps 746 mmHg 88%
13:00 +4°C° 0.4 mm 2 mps 746 mmHg 87%
14:00 +4°C° 0.1 mm 2 mps 746 mmHg 86%
15:00 +5°C° 0.1 mm 1 mps 747 mmHg 86%
16:00 +5°C° 0.1 mm 1 mps 747 mmHg 86%
17:00 +3°C° 0 mm 1 mps 748 mmHg 90%
18:00 +2°C° 0 mm 1 mps 749 mmHg 93%
19:00 0°C° 0 mm 1 mps 750 mmHg 97%
20:00 0°C° 0 mm 1 mps 751 mmHg 97%
21:00 -1°C° 0 mm 1 mps 752 mmHg 97%
22:00 -1°C° 0 mm 1 mps 753 mmHg 97%
23:00 -1°C° 0 mm 1 mps 753 mmHg 96%

19 August, Wednesday

Time Temperature Precipitation Wind Pressure Humidity
00:00 -2°C° 0 mm 1 mps 754 mmHg 96%
01:00 -2°C° 0 mm 1 mps 754 mmHg 95%
02:00 -2°C° 0 mm 1 mps 754 mmHg 95%
03:00 -2°C° 0 mm 1 mps 754 mmHg 94%
04:00 -3°C° 0 mm 1 mps 755 mmHg 93%
05:00 -2°C° 0 mm 1 mps 755 mmHg 92%
06:00 -2°C° 0 mm 1 mps 755 mmHg 92%
07:00 -2°C° 0 mm 1 mps 755 mmHg 91%
08:00 0°C° 0 mm 1 mps 755 mmHg 83%
09:00 +3°C° 0 mm 1 mps 755 mmHg 75%
10:00 +6°C° 0 mm 1 mps 755 mmHg 68%
11:00 +7°C° 0 mm 1 mps 755 mmHg 66%
12:00 +8°C° 0 mm 1 mps 755 mmHg 64%
13:00 +9°C° 0 mm 1 mps 754 mmHg 62%
14:00 +9°C° 0 mm 1 mps 754 mmHg 66%
15:00 +8°C° 0 mm 1 mps 754 mmHg 70%
16:00 +8°C° 0 mm 1 mps 754 mmHg 74%
17:00 +6°C° 0 mm 1 mps 755 mmHg 81%
18:00 +4°C° 0 mm 1 mps 755 mmHg 88%
19:00 +2°C° 0 mm 1 mps 755 mmHg 95%
20:00 +1°C° 0 mm 1 mps 755 mmHg 94%
21:00 +1°C° 0 mm 1 mps 756 mmHg 94%
22:00 0°C° 0 mm 1 mps 756 mmHg 94%
23:00 0°C° 0 mm 1 mps 756 mmHg 93%
Show more